Big Bear Station Historical Data
Daily Summary for January 30, 2017 Units:  English    Metric   Both
Next Day »
Daily Weekly Monthly Yearly Custom
  High: Low: Average:
Temperature: 57.6 °F 18.0 °F 33.7 °F
Dew Point: 29.2 °F 14.5 °F 21.4 °F
Humidity: 88% 22% 66%
Wind Speed: 5.3mph 0.0mph 0.7mph
Wind Gust: -999.0mph - -
Wind- - SW
Pressure: 30.33 in 23.66 in -
Precipitation: 0.00 in    
Historical Graphs
 
 
Tabular Data for January 30, 2017
Time Temperature Dew Point Pressure Wind Wind Speed Wind Gust Humidity Rainfall Rate (Hourly)
00:11 25.3 °F 18.5 °F 30.33 in SSE 2.2 mph -999.0 mph 75% 0 in
00:41 25.0 °F 18.5 °F 30.33 in SSE 2.7 mph -999.0 mph 76% 0 in
01:12 25.0 °F 19.1 °F 30.33 in SSE 2.2 mph -999.0 mph 78% 0 in
01:27 24.3 °F 18.1 °F 30.32 in NW 2.2 mph -999.0 mph 77% 0 in
01:42 24.3 °F 18.7 °F 30.32 in Calm   -999.0 mph 79% 0 in
01:57 23.7 °F 17.8 °F 30.32 in Calm   -999.0 mph 78% 0 in
02:12 23.5 °F 17.9 °F 30.31 in Calm   -999.0 mph 79% 0 in
02:28 23.0 °F 16.6 °F 30.31 in Calm   -999.0 mph 76% 0 in
02:43 22.3 °F 17.6 °F 30.31 in Calm   -999.0 mph 82% 0 in
02:58 22.3 °F 17.4 °F 30.31 in Calm   -999.0 mph 81% 0 in
03:13 21.6 °F 17.0 °F 30.31 in Calm   -999.0 mph 82% 0 in
03:29 21.6 °F 16.4 °F 30.31 in SSE 1.7 mph -999.0 mph 80% 0 in
03:44 21.4 °F 17.0 °F 30.31 in Calm   -999.0 mph 83% 0 in
03:59 21.4 °F 16.2 °F 30.31 in Calm   -999.0 mph 80% 0 in
04:14 21.2 °F 16.0 °F 30.31 in Calm   -999.0 mph 80% 0 in
04:29 21.0 °F 16.4 °F 30.31 in Calm   -999.0 mph 82% 0 in
04:45 20.5 °F 16.2 °F 30.30 in SSE 1.1 mph -999.0 mph 83% 0 in
05:00 20.5 °F 16.2 °F 30.31 in Calm   -999.0 mph 83% 0 in
05:15 19.8 °F 15.5 °F 30.31 in Calm   -999.0 mph 83% 0 in
05:30 19.2 °F 15.4 °F 30.31 in Calm   -999.0 mph 85% 0 in
05:45 18.9 °F 15.1 °F 30.31 in Calm   -999.0 mph 85% 0 in
06:01 18.7 °F 15.5 °F 30.31 in Calm   -999.0 mph 87% 0 in
06:16 18.9 °F 15.1 °F 30.31 in Calm   -999.0 mph 85% 0 in
06:31 18.3 °F 14.8 °F 30.31 in Calm   -999.0 mph 86% 0 in
06:47 18.7 °F 15.2 °F 30.31 in Calm   -999.0 mph 86% 0 in
07:02 18.0 °F 14.5 °F 30.31 in Calm   -999.0 mph 86% 0 in
07:32 18.0 °F 15.0 °F 30.31 in Calm   -999.0 mph 88% 0 in
08:03 19.6 °F 16.1 °F 30.31 in Calm   -999.0 mph 86% 0 in
08:18 20.1 °F 16.6 °F 23.66 in Calm   -999.0 mph 86% 0 in
08:48 22.5 °F 17.6 °F 30.31 in Calm   -999.0 mph 81% 0 in
09:19 24.4 °F 17.9 °F 30.31 in Calm   -999.0 mph 76% 0 in
09:49 29.1 °F 20.9 °F 30.31 in Calm   -999.0 mph 71% 0 in
10:20 39.9 °F 24.1 °F 30.32 in South 1.1 mph -999.0 mph 53% 0 in
10:35 41.0 °F 23.3 °F 30.31 in Calm   -999.0 mph 49% 0 in
10:50 45.3 °F 21.2 °F 30.31 in WNW 1.7 mph -999.0 mph 38% 0 in
11:05 47.7 °F 18.5 °F 30.31 in ENE 1.7 mph -999.0 mph 31% 0 in
11:21 50.4 °F 19.3 °F 30.31 in Calm   -999.0 mph 29% 0 in
11:36 54.5 °F 20.3 °F 30.30 in NW 2.2 mph -999.0 mph 26% 0 in
11:51 54.3 °F 16.2 °F 30.30 in WNW 1.7 mph -999.0 mph 22% 0 in
12:06 55.2 °F 19.0 °F 30.29 in NW 2.2 mph -999.0 mph 24% 0 in
12:21 55.4 °F 21.1 °F 30.29 in NNW 5.3 mph -999.0 mph 26% 0 in
12:37 55.0 °F 22.5 °F 30.28 in NNW 4.2 mph -999.0 mph 28% 0 in
12:52 54.7 °F 24.6 °F 30.28 in WNW 2.7 mph -999.0 mph 31% 0 in
13:07 57.6 °F 24.7 °F 30.27 in NW 1.1 mph -999.0 mph 28% 0 in
13:22 55.9 °F 25.7 °F 30.27 in NW 1.7 mph -999.0 mph 31% 0 in
13:37 54.9 °F 25.6 °F 30.27 in NW 2.2 mph -999.0 mph 32% 0 in
13:53 54.1 °F 26.3 °F 30.26 in NW 2.2 mph -999.0 mph 34% 0 in
14:08 53.8 °F 26.1 °F 30.26 in SW 1.7 mph -999.0 mph 34% 0 in
14:23 53.6 °F 26.6 °F 30.26 in WNW 2.2 mph -999.0 mph 35% 0 in
14:38 53.6 °F 27.3 °F 30.26 in WSW 2.2 mph -999.0 mph 36% 0 in
14:54 52.7 °F 27.1 °F 30.26 in NE 1.7 mph -999.0 mph 37% 0 in
15:09 52.2 °F 27.3 °F 30.26 in SE 1.1 mph -999.0 mph 38% 0 in
15:24 51.8 °F 27.6 °F 30.26 in WNW 1.7 mph -999.0 mph 39% 0 in
15:39 51.3 °F 27.8 °F 30.26 in ENE 1.7 mph -999.0 mph 40% 0 in
15:55 50.2 °F 28.0 °F 30.26 in SW 1.7 mph -999.0 mph 42% 0 in
16:10 49.5 °F 27.9 °F 30.26 in Calm   -999.0 mph 43% 0 in
16:25 48.4 °F 29.1 °F 30.26 in Calm   -999.0 mph 47% 0 in
16:41 45.3 °F 29.2 °F 30.26 in South 2.2 mph -999.0 mph 53% 0 in
16:56 44.6 °F 28.1 °F 30.26 in Calm   -999.0 mph 52% 0 in
17:11 41.9 °F 29.0 °F 30.26 in Calm   -999.0 mph 60% 0 in
17:26 40.3 °F 29.1 °F 30.26 in South 1.7 mph -999.0 mph 64% 0 in
17:41 39.2 °F 28.0 °F 30.27 in Calm   -999.0 mph 64% 0 in
17:57 37.2 °F 28.3 °F 30.27 in South 1.7 mph -999.0 mph 70% 0 in
18:12 36.5 °F 28.0 °F 30.27 in South 1.7 mph -999.0 mph 71% 0 in
18:27 35.8 °F 27.0 °F 30.28 in Calm   -999.0 mph 70% 0 in
18:42 34.7 °F 26.6 °F 30.28 in Calm   -999.0 mph 72% 0 in
18:57 34.0 °F 26.6 °F 30.27 in Calm   -999.0 mph 74% 0 in
19:13 33.1 °F 25.4 °F 30.27 in Calm   -999.0 mph 73% 0 in
19:28 32.4 °F 25.4 °F 30.28 in Calm   -999.0 mph 75% 0 in
19:43 31.6 °F 24.6 °F 30.27 in Calm   -999.0 mph 75% 0 in
19:58 30.9 °F 24.2 °F 30.28 in Calm   -999.0 mph 76% 0 in
20:13 30.0 °F 23.7 °F 30.28 in Calm   -999.0 mph 77% 0 in
20:29 29.7 °F 23.7 °F 30.28 in Calm   -999.0 mph 78% 0 in
20:44 28.8 °F 23.1 °F 30.28 in Calm   -999.0 mph 79% 0 in
20:59 28.4 °F 22.7 °F 30.28 in Calm   -999.0 mph 79% 0 in
21:14 28.0 °F 22.6 °F 30.28 in Calm   -999.0 mph 80% 0 in
21:30 27.1 °F 21.2 °F 30.28 in Calm   -999.0 mph 78% 0 in
21:45 26.6 °F 21.0 °F 30.27 in Calm   -999.0 mph 79% 0 in
22:00 25.9 °F 20.6 °F 30.27 in Calm   -999.0 mph 80% 0 in
22:15 25.2 °F 20.2 °F 30.27 in Calm   -999.0 mph 81% 0 in
22:30 25.0 °F 20.3 °F 30.27 in Calm   -999.0 mph 82% 0 in
22:46 24.1 °F 20.0 °F 30.28 in Calm   -999.0 mph 84% 0 in
23:01 24.1 °F 20.2 °F 30.27 in Calm   -999.0 mph 85% 0 in
23:16 23.4 °F 19.6 °F 30.27 in Calm   -999.0 mph 85% 0 in
23:31 23.0 °F 19.2 °F 30.27 in Calm   -999.0 mph 85% 0 in
23:46 22.8 °F 18.4 °F 30.27 in Calm   -999.0 mph 83% 0 in
Big Bear CA Weather